Regional Weather Roundup
Issued by NWS

Home | Current Version | Previous Version | Text Only | Print | Product List | Glossary On
Versions: 1 2 3 4 5 6 7 8 9 10 11 12 13 14 15 16 17 18 19 20 21 22 23 24 25 26 27 28 29 30 31 32 33 34 35 36 37 38 39 40 41 42 43 44 45 46 47 48 49 50
000
ASCA44 KEWX 252220
RWRMX

LATIN AMERICA AND CARIBBEAN REGIONAL WEATHER ROUNDUP
NATIONAL WEATHER SERVICE AUSTIN/SAN ANTONIO TX
500 PM CDT MON SEP 25 2017

NOTE: "FAIR" INDICATED FEW OR NO CLOUDS BELOW 12,000 FEET WITH NO
SIGNIFICANT WEATHER AND/OR OBSTRUCTIONS TO VISIBILITY.

BAJA CALIFORNIA

CITY           SKY/WX    TMP DP  RH WIND       PRES   REMARKS
LORETO         MOSUNNY   88  68  51 NE9       29.71F HX  91
LA PAZ         PTSUNNY   84  59  42 SW7       29.74
MEXICALI       MOSUNNY   88  18   7 CALM      29.75
S.J. DEL CABO  PTSUNNY   84  66  54 E12       29.73F
TIJUANA        MOSUNNY   81  36  19 W15       29.81F

NORTHWESTERN MEXICO

CITY           SKY/WX    TMP DP  RH WIND       PRES   REMARKS
CULIACAN       PTSUNNY   91  68  46 CALM      29.68  HX  95
DURANGO        CLOUDY    72  59  64 S8        29.98
GUAYMAS        SUNNY     90  54  29 S13       29.65
HERMOSILLO     SUNNY     93  39  15 SW5       29.72
CD. JUAREZ     MOSUNNY   86  32  14 W9        29.83
LOS MOCHIS     SUNNY     90  55  31 W14       29.71F
OBREGON        SUNNY     93  52  24 W7        29.67  HX  90

NORTHEASTERN MEXICO

CITY           SKY/WX    TMP DP  RH WIND       PRES   REMARKS
CHIHUAHUA      MOSUNNY   88  43  20 CALM      29.82
MATAMOROS      PTSUNNY   91  73  55 SE16      29.72  HX 100
MONCLOVA       PTSUNNY   84  55  37 N17       29.72
MONTERREY      PTSUNNY   91  64  40 CALM      29.68F HX  93
NUEVO LAREDO   CLOUDY    93  66  40 SE14      29.68  HX  96
PIEDRAS NEGRAS   N/A    N/A N/A N/A MISG        N/A
REYNOSA        MOSUNNY   91  63  38 SE12G23   29.68  HX  92
SALTILLO       PTSUNNY   75  61  60 N14       29.93S
TORREON        PTSUNNY   90  59  35 SE3       29.79F
CD. VICTORIA   MOSUNNY   90  64  43 MISG      29.69  HX  91

WESTERN MEXICO

CITY           SKY/WX    TMP DP  RH WIND       PRES   REMARKS
AGUASCALIENTES PTSUNNY   73  57  56 SW8       30.02F
COLIMA         PTSUNNY   77  72  83 W12       29.87F
DEL BAJIO      PTSUNNY   77  57  50 CALM      30.05F
GUADALAJARA    PTSUNNY   73  61  64 CALM      29.96
MANZANILLO     MOSUNNY   84  75  74 W17       29.72F HX  92
MAZATLAN       CLOUDY    81  77  89 SE10      29.74F
P. VALLARTA    CLOUDY    82  75  78 W7        29.75F
URUAPAN        PTSUNNY   70  64  83 S8        29.98F
ZACATECAS      PTSUNNY   66  55  68 W12G23    30.06R

CENTRAL MEXICO

CITY           SKY/WX    TMP DP  RH WIND       PRES   REMARKS
CUERNAVACA     PTSUNNY   79  66  65 SW7       29.91F
MEXICO CITY    CLOUDY    72  54  53 SW8       30.09S
MORELIA        PTSUNNY   77  59  53 S7        29.99
POZA RICA      MOSUNNY   90  75  62 E9        29.75F HX 100
PUEBLA         PTSUNNY   68  57  68 S14       30.11F
QUERETARO      PTSUNNY   72  61  68 W6        30.05F
S. LUIS POTOSI CLOUDY    68  61  77 E8        30.00F THUNDER
TAMPICO        PTSUNNY   82  77  83 E7        29.72F HX  91
TOLUCA         PTSUNNY   64  54  68 SE14      30.15F

SOUTHERN MEXICO

CITY           SKY/WX    TMP DP  RH WIND       PRES   REMARKS
ACAPULCO       PTSUNNY   88  77  70 W8        29.70F HX 100
B. DE HUATULCO CLOUDY   N/A N/A N/A CALM      29.76
OAXACA         DRIZZLE   79  61  53 SE7       29.99R
P. ESCONDIDO   CLOUDY   N/A N/A N/A SW5       29.82S
VERACRUZ       MOSUNNY   91  79  66 MISG      29.68F HX 107
ZIHUATANEJO    MOSUNNY   88  75  66 SW12      29.71F HX  97

YUCATAN PENINSULA

CITY           SKY/WX    TMP DP  RH WIND       PRES   REMARKS
CAMPECHE       MOSUNNY   86  81  84 N12       29.66F HX 102
CANCUN         LGT RAIN  81  77  89 SE8G20    29.82R
CHETUMAL       PTSUNNY   86  79  79 E10       29.71  HX  99
CD. DEL CARMEN MOSUNNY  N/A N/A N/A N12       29.67
COZUMEL        PTSUNNY   81  75  83 CALM      29.78R
MERIDA         PTSUNNY   91  73  55 E8        29.72F HX 100
MINATITLAN     MOSUNNY   88  73  62 N12       29.65  HX  96
TAPACHULA      PTSUNNY   81  75  83 S8        29.73R
TUX. GUTIERREZ MOSUNNY   88  70  55 E5        29.72F HX  92
VILLAHERMOSA   MOSUNNY   90  75  62 E7        29.67F HX 100

CENTRAL AMERICA

CITY           SKY/WX    TMP DP  RH WIND       PRES   REMARKS
BELIZE CITY    MOSUNNY   90  79  70 E8        29.68F HX 105
MANAGUA        DRIZZLE   77  73  88 S5        29.77R

CARIBBEAN

CITY           SKY/WX    TMP DP  RH WIND       PRES   REMARKS
ARUBA          PTCLDY    86  77  74 E25G37    29.74S HX  97
CURACAO        PTCLDY    86  73  66 E17       29.80S HX  93
KINGSTON       MOSUNNY   90  77  66 SE15      29.80S HX 102
NASSAU         MOSUNNY   88  77  70 W5        29.85R HX 100
SAN JUAN       PTCLDY    88  75  66 SE8       29.86R HX  97
SANTO DOMINGO  PTCLDY    84  79  84 SE6       29.89R HX  96
ST. KITTS      PTCLDY    82  77  83 E8        29.94S HX  91

$$





USA.gov is the U.S. government's official web portal to all federal, state and local government web resources and services.